Weather History for Marrakech, Morocco

Change the Weather History Date:

Wednesday, September 4, 2013

  Actual Average Record
Temperature  
Mean Temperature 82 °F -  
Max Temperature 97 °F 87 °F - ()
Min Temperature 67 °F 63 °F - ()
Cooling Degree Days 17    
Growing Degree Days 32 (Base 50)    
Moisture  
Dew Point 51 °F    
Average Humidity 38    
Maximum Humidity 69    
Minimum Humidity 9    
Precipitation  
Precipitation 0.00 in 0.01 in - ()
Sea Level Pressure  
Sea Level Pressure 30.03 in    
Wind  
Wind Speed 6 mph ()    
Max Wind Speed 16 mph    
Max Gust Speed -    
Visibility 6.1 miles    
Events      
T = Trace of Precipitation, MM = Missing Value Source: Averaged Metar Reports

Daily Weather History Graph

Daily Weather History Graph

Search for Another Location

Airport:

Trip Planner

Search our weather history database for the weather conditions in past years. The results will help you decide how hot, cold, wet, or windy it might be!

Date:

Astronomy

Sep. 04, 2013 Rise Set
Actual Time 7:09 AM WEST 7:52 PM WEST
Civil Twilight 6:44 AM WEST 8:16 PM WEST
Nautical Twilight 6:15 AM WEST 8:45 PM WEST
Astronomical Twilight 5:46 AM WEST 9:15 PM WEST
Moon 6:09 AM WEST (9/4) 7:05 PM WEST (9/4)
Length of Visible Light 13h 31m
Length of Day
12h 42m
Waning Crescent, 1% of the Moon is Illuminated
Sep 4
Waning Crescent
Sep 5
New
Sep 12
First Quarter
Sep 19
Full
Sep 27
Last Quarter

Hourly Weather History & Observations

Time (WEST) Temp. Heat Index Dew Point Humidity Pressure Visibility Wind Dir Wind Speed Gust Speed Precip Events Conditions
12:00 AM 77.0 °F - 53.6 °F 44% 30.09 in - WSW 5.8 mph - N/A   Clear
12:30 AM 75.2 °F - 53.6 °F 47% 30.06 in - Variable 1.2 mph - N/A   Clear
1:00 AM 78 °F - 53 °F 31% 30.00 in 6 mi SW 5.8 mph - -  
1:00 AM 78.8 °F - 53.6 °F 42% 30.06 in - SW 5.8 mph - N/A   Clear
2:00 AM 73.4 °F - 51.8 °F 47% 30.04 in - WSW 3.5 mph - N/A   Clear
2:30 AM 73.4 °F - 51.8 °F 47% 30.04 in - West 3.5 mph - N/A   Clear
3:00 AM 75.2 °F - 51.8 °F 44% 30.04 in - WSW 3.5 mph - N/A   Clear
3:30 AM 75.2 °F - 51.8 °F 44% 30.04 in - WSW 3.5 mph - N/A   Clear
4:00 AM 74 °F - 54 °F 38% 29.96 in 6 mi SW 3.5 mph - -  
4:00 AM 73.4 °F - 53.6 °F 50% 30.01 in - SW 3.5 mph - N/A   Clear
4:30 AM 71.6 °F - 51.8 °F 50% 30.01 in - WSW 3.5 mph - N/A   Clear
5:00 AM 69.8 °F - 50.0 °F 49% 30.01 in - WSW 5.8 mph - N/A   Clear
5:30 AM 69.8 °F - 50.0 °F 49% 30.04 in - SW 3.5 mph - N/A   Clear
6:00 AM 68.0 °F - 51.8 °F 56% 30.04 in - WSW 3.5 mph - N/A   Clear
6:30 AM 68.0 °F - 50.0 °F 52% 30.04 in - WSW 3.5 mph - N/A   Clear
7:00 AM 68 °F - 51 °F 43% 29.99 in 6 mi WSW 3.5 mph - -  
7:00 AM 68.0 °F - 50.0 °F 52% 30.04 in - WSW 3.5 mph - N/A   Clear
7:30 AM 68.0 °F - 50.0 °F 52% 30.04 in - WSW 2.3 mph - N/A   Clear
8:00 AM 69.8 °F - 51.8 °F 53% 30.04 in - West 3.5 mph - N/A   Clear
8:30 AM 71.6 °F - 53.6 °F 53% 30.04 in - WSW 3.5 mph - N/A   Clear
9:00 AM 71.6 °F - 57.2 °F 60% 30.04 in - West 4.6 mph - N/A   Clear
9:30 AM 73.4 °F - 59.0 °F 61% 30.06 in - WSW 4.6 mph - N/A   Clear
10:00 AM 76 °F - 56 °F 40% 29.99 in 6 mi WSW 3.5 mph - -  
10:00 AM 75.2 °F - 57.2 °F 53% 30.06 in - WSW 3.5 mph - N/A   Clear
10:30 AM 78.8 °F - 55.4 °F 44% 30.06 in - West 3.5 mph - N/A   Clear
11:00 AM 80.6 °F - 51.8 °F 37% 30.06 in - West 4.6 mph - N/A   Clear
11:30 AM 84.2 °F - 51.8 °F 33% 30.06 in - West 6.9 mph - N/A   Clear
12:00 PM 86.0 °F 84.2 °F 53.6 °F 33% 30.04 in - WNW 6.9 mph - N/A   Clear
12:30 PM 86.0 °F 84.5 °F 55.4 °F 35% 30.04 in - West 8.1 mph - N/A   Clear
1:00 PM 88 °F - 53 °F 20% 29.95 in 6 mi WSW 9.2 mph - -  
1:00 PM 87.8 °F - 50.0 °F 27% 30.04 in - WSW 9.2 mph - N/A   Clear
1:30 PM 89.6 °F - 44.6 °F 21% 30.04 in 6.2 mi WNW 6.9 mph - N/A   Partly Cloudy
2:00 PM 91.4 °F - 41.0 °F 17% 30.04 in 6.2 mi West 9.2 mph - N/A   Partly Cloudy
2:30 PM 91.4 °F - 42.8 °F 18% 30.04 in 6.2 mi West 9.2 mph - N/A   Partly Cloudy
3:00 PM 93.2 °F - 39.2 °F 15% 30.01 in 6.2 mi West 10.4 mph - N/A   Partly Cloudy
3:30 PM 93.2 °F - 41.0 °F 16% 30.01 in 6.2 mi West 11.5 mph - N/A   Partly Cloudy
4:00 PM 93 °F - 42 °F 9% 29.90 in 6 mi West 12.7 mph - -   Scattered Clouds
4:00 PM 93.2 °F - 41.0 °F 16% 30.01 in 6.2 mi WSW 12.7 mph - N/A   Partly Cloudy
4:30 PM 93.2 °F - 41.0 °F 16% 30.01 in 6.2 mi WNW 10.4 mph - N/A   Partly Cloudy
5:00 PM 93.2 °F - 41.0 °F 16% 30.01 in 6.2 mi WSW 11.5 mph - N/A   Partly Cloudy
5:30 PM 95.0 °F - 42.8 °F 16% 30.01 in 6.2 mi WSW 11.5 mph - N/A   Partly Cloudy
6:00 PM 93.2 °F - 44.6 °F 19% 30.01 in 6.2 mi WSW 12.7 mph - N/A   Partly Cloudy
6:30 PM 95.0 °F - 44.6 °F 18% 30.01 in 6.2 mi West 16.1 mph - N/A   Partly Cloudy
7:00 PM 92 °F - 47 °F 13% 29.89 in 6 mi West 16.1 mph - -  
7:00 PM 93.2 °F - 46.4 °F 20% 30.01 in - West 16.1 mph - N/A   Clear
7:30 PM 89.6 °F - 48.2 °F 24% 30.01 in - West 13.8 mph - N/A   Clear
8:00 PM 87.8 °F - 50.0 °F 27% 30.01 in 6.2 mi West 10.4 mph - N/A   Partly Cloudy
8:30 PM 86.0 °F - 51.8 °F 31% 30.04 in 6.2 mi West 5.8 mph - N/A   Partly Cloudy
9:00 PM 82.4 °F 81.4 °F 53.6 °F 37% 30.04 in 6.2 mi WSW 8.1 mph - N/A   Partly Cloudy
9:30 PM 80.6 °F 80.8 °F 57.2 °F 45% 30.04 in 6.2 mi WSW 8.1 mph - N/A   Partly Cloudy
10:00 PM 79 °F - 61 °F 43% 29.99 in 6 mi WSW 9.2 mph - -   Scattered Clouds
10:00 PM 78.8 °F - 60.8 °F 54% 30.06 in 6.2 mi WSW 9.2 mph - N/A   Partly Cloudy
10:30 PM 77.0 °F - 62.6 °F 61% 30.06 in 6.2 mi WSW 9.2 mph - N/A   Partly Cloudy
11:00 PM 75.2 °F - 62.6 °F 65% 30.06 in - WSW 9.2 mph - N/A   Clear
11:30 PM 73.4 °F - 62.6 °F 69% 30.06 in - WSW 10.4 mph - N/A   Clear